IK4NOW-13 Weather Reports


time (UTC)temp
C
wind
direction
speed
KPH
gust
KPH
rain 1hr
cm
rain 24hr
cm
rain mn
cm
humidity
%
barometer
mb
20260507113417 23 0.0 0.0 0.00 0.00 0.00 52 1013.9
20260507104912 23 0.0 0.0 0.00 0.00 0.00 53 1014.2
20260507100407 22 0.0 0.0 0.00 0.00 0.00 54 1014.4
20260507091902 22 0.0 0.0 0.00 0.00 0.00 56 1014.5
20260507083356 22 0.0 0.0 0.00 0.00 0.00 56 1014.4
20260507074851 21 0.0 0.0 0.00 0.00 0.00 59 1014.2
20260507070346 22 0.0 0.0 0.00 0.00 0.00 60 1014.2
20260507061840 23 0.0 0.0 0.00 0.00 0.00 62 1013.9
20260507053335 15 0.0 0.0 0.00 0.00 0.00 64 1013.7
20260507044830 13 0.0 0.0 0.00 0.00 0.00 62 1013.4
20260507040326 13 0.0 0.0 0.00 0.00 0.00 63 1012.8
20260507031820 14 0.0 0.0 0.00 0.00 0.00 62 1012.5
20260507023314 14 0.0 0.0 0.00 0.00 0.00 62 1012.5
20260507014809 14 0.0 0.0 0.00 0.00 0.00 62 1012.6
20260507010304 15 0.0 0.0 0.00 0.00 0.00 63 1012.4
20260507001759 15 0.0 0.0 0.00 0.00 0.00 63 1012.5
20260506233254 15 0.0 0.0 0.00 0.00 0.00 63 1012.8
20260506224749 15 0.0 0.0 0.00 0.00 0.00 63 1012.7
20260506220245 15 0.0 0.0 0.00 0.00 0.00 63 1012.6
20260506211738 15 0.0 0.0 0.00 0.00 0.00 63 1012.5
20260506203233 16 0.0 0.0 0.00 0.00 0.00 63 1012.3
20260506194727 16 0.0 0.0 0.00 0.00 0.00 63 1012.0
20260506190222 16 0.0 0.0 0.00 0.00 0.00 63 1011.4
20260506181716 17 0.0 0.0 0.00 0.00 0.00 62 1011.1
20260506173211 17 0.0 0.0 0.00 0.00 0.00 61 1010.6
20260506164706 18 0.0 0.0 0.00 0.00 0.00 61 1010.2
20260506160201 19 0.0 0.0 0.00 0.00 0.00 60 1010.3
20260506151656 18 0.0 0.0 0.00 0.00 0.00 61 1010.4
20260506143150 23 0.0 0.0 0.00 0.00 0.00 56 1009.7
20260506134645 23 0.0 0.0 0.00 0.00 0.00 57 1009.9
20260506130140 23 0.0 0.0 0.00 0.00 0.00 57 1010.3
20260506121634 22 0.0 0.0 0.00 0.00 0.00 58 1010.5